STARLINK-35115

Last updated on Mon Oct 20 2025 00:02:05 GMT+0000 (Coordinated Universal Time)

1 65665U 25211P 25292.11371710 -.00368668 00000+0 -72872-2 0 9996 2 65665 97.6058 334.2746 0002077 25.2667 334.8684 15.48433264 5728
UTC large
Height (km)
Speed (km/s)
/
Latitude / Longitude
Inclination (degrees)
Orbital Period (minutes)
Azimuth
Elevation
Range (km)
Doppler Factor

Next 0 passes for location: London (51.5072 / 0.1276)

Sorry there are no passes over London.